Regional Weather Roundup
Issued by NWS

Home | Current Version | Previous Version | Graphics & Text | Print | Product List | Glossary On
Versions: 1 2 3 4 5 6 7 8 9 10 11 12 13 14 15 16 17 18 19 20 21 22 23 24 25 26 27 28 29 30 31 32 33 34 35 36 37 38 39 40 41 42 43 44 45 46 47 48 49 50
015
ASUS45 KBOU 190110
RWRCO

WEATHER ROUNDUP FOR COLORADO
NATIONAL WEATHER SERVICE DENVER/BOULDER CO
600 PM MST SAT NOV 18 2017

NOTE: "FAIR" INDICATES FEW OR NO CLOUDS BELOW 12000 FEET WITH NO
SIGNIFICANT WEATHER AND/OR OBSTRUCTIONS TO VISIBILITY.

COZ001>005-013-030-031-190200-
...NORTHWEST COLORADO...

CITY           SKY/WX    TMP DP  RH WIND       PRES   REMARKS
CRAIG          FAIR      24  13  62 E5        30.38S WCI  18
HAYDEN         FAIR      22  14  71 SE6       30.40R WCI  14
MEEKER         FAIR      24  19  81 MISG      30.38R
RABBIT EARS PA FAIR      10   9  92 W13G21    30.29R WCI  -5
STEAMBOAT SPGS FAIR      23  12  62 CALM      30.38R
WALDEN         FAIR      18   1  49 S9        30.33R WCI   6
$$

COZ006>008-011-190200-
...WEST CENTRAL VALLEYS...

CITY           SKY/WX    TMP DP  RH WIND       PRES   REMARKS
GRAND JUNCTION FAIR      31  16  54 CALM      30.38R
MONTROSE       FAIR      32  20  61 SE3       30.40S
EAGLE          FAIR      27  20  75 E9        30.41R WCI  18
RIFLE          FAIR      32  22  66 S7        30.40R WCI  26
DELTA          FAIR      39  13  35 CALM      30.39S
NUCLA          FAIR      39   5  24 CALM      30.38
$$

COZ017>023-064>068-190200-
...SOUTHWEST COLORADO...

CITY           SKY/WX    TMP DP  RH WIND       PRES   REMARKS
DURANGO        FAIR      34  14  43 SW5       30.34R WCI  30
CORTEZ         FAIR      30  13  49 CALM      30.34R
PAGOSA SPRINGS FAIR      33  17  51 CALM      30.35R
TELLURIDE      FAIR      28  14  55 CALM      30.38S
WOLF CREEK PAS FAIR      18  10  73 SW10      30.42R WCI   6
$$

COZ009-010-012-014-032>034-037-058>063-190200-
...CENTRAL COLORADO...

CITY           SKY/WX    TMP DP  RH WIND       PRES   REMARKS
ASPEN          FAIR      20  12  71 SW8       30.37R WCI  10
BUENA VISTA    FAIR      31  10  42 NW8       30.29R WCI  23
COPPER MTN     FAIR      14   1  57 MISG      30.33R
BERTHOUD PASS  FAIR       5  -6  61 NW31G38   30.26R WCI -19
COTTONWOOD PAS FAIR      32   9  37 N3        30.30R
GUNNISON       FAIR      23  17  78 N6        30.38R WCI  16
KREMMLING      FAIR      30  16  55 CALM      30.37R
LEADVILLE      FAIR      13   8  81 NE3       30.33R
MONARCH PASS   FAIR      18   5  57 W35G40    30.42R WCI  -3
SALIDA         FAIR      36   7  29 W9G16     30.36R
SUNLIGHT       FAIR      14   5  67 MISG      30.39R
WILKERSON PASS MOCLDY    21   0  39 W7        30.32R WCI  13
$$

COZ069>075-190200-
...SAN LUIS VALLEY/SANGRE DE CRISTO MOUNTAINS...

CITY           SKY/WX    TMP DP  RH WIND       PRES   REMARKS
ALAMOSA        FAIR      28  11  48 S6        30.33R WCI  22
DEL NORTE      FAIR      27  10  48 N3        30.34R
LA VETA PASS   FAIR      27   3  36 SW26G39     N/A  WCI  11
SAGUACHE       FAIR      30   5  34 N7        30.34R WCI  23
$$

COZ035-036-038>040-190200-
...NORTHERN COLORADO FRONT RANGE...

CITY           SKY/WX    TMP DP  RH WIND       PRES   REMARKS
DENVER INTL AP FAIR      33  22  63 S10       30.20R WCI  25
DMNS CITY PARK   N/A     45  -2  14 W14G20    30.19F
AURORA         PTCLDY    38  15  38 S5        30.21R
FRONT RANGE AP PTCLDY    32  27  80 SE8       30.22R WCI  25
ERIE MUNI ARPT FAIR      35  11  37 SW10      30.25R WCI  28
BOULDER MUN AP FAIR      37  18  44 N5        30.19R
CENTENNIAL     FAIR      35  17  47 S5        30.20R WCI  31
BROOMFIELD     PTCLDY    41   3  20 W16       30.20R
FORT COLLINS   FAIR      38  14  37 SE6       30.21R
LONGMONT       FAIR      35  20  55 N3        30.22R
$$

COZ041-046-047-076>085-087-088-190200-
...PIKES PEAK/PALMER DIVIDE AND SOUTHERN FOOTHILLS...

CITY           SKY/WX    TMP DP  RH WIND       PRES   REMARKS
COLO. SPRINGS  FAIR      33  16  49 E8        30.26R WCI  26
A. F. ACADEMY  FAIR      32  14  47 CALM      30.24R
SCHRIEVER AFB  FAIR      31  13  46 S3        30.26R
CHEYENNE MTN   FAIR      33  14  44 S9        30.19R WCI  26
ELLICOTT       NOT AVBL
FALCON         FAIR      29  12  49 SW6       30.26R WCI  23
FORT CARSON    FAIR      34  17  50 S7        30.23R WCI  28
LIMON          FAIR      20  14  77 CALM      30.24R
MONUMENT HILL  FAIR      30  14  51 SW10      30.24S WCI  21
CANON CITY     FAIR      36  21  55 N6        30.24R
WALSENBURG     FAIR      36  28  75 CALM      30.24R
TRINIDAD       FAIR      35  23  61 CALM      30.26R
$$

COZ042>045-048>051-090-091-190200-
...NORTHEAST COLORADO...

CITY           SKY/WX    TMP DP  RH WIND       PRES   REMARKS
GREELEY ARPT   FAIR      36  17  46 SE5       30.21R
AKRON          FAIR      36  12  37 E3        30.22R
BURLINGTON     FAIR      34  13  41 W3        30.25R
WRAY           NOT AVBL
YUMA           FAIR      32  18  55 NW7       30.24R WCI  26
STERLING       FAIR      32  18  55 CALM      30.21S
HOLYOKE        FAIR      37  18  44 N5        30.23R
FORT MORGAN    FAIR      38   9  29 S3        30.22R
$$

COZ086-089-092>099-190200-
...SOUTHEAST COLORADO...

CITY           SKY/WX    TMP DP  RH WIND       PRES   REMARKS
PUEBLO         FAIR      35  22  58 E3        30.24R
LA JUNTA       FAIR      39  17  41 S3        30.25R
LAMAR          FAIR      26   8  46 S6        30.25S WCI  19
SPRINGFIELD      N/A     25  15  66 CALM      30.28R
$$




USA.gov is the U.S. government's official web portal to all federal, state and local government web resources and services.